Time,TemperatureF,DewpointF,PressureIn,WindDirection,WindDirectionDegrees,WindSpeedMPH,WindSpeedGustMPH,Humidity,HourlyPrecipIn,Conditions,Clouds,dailyrainin,SoftwareType,DateUTC
2013-01-16 00:03:00,24.0,14.0,29.74,SW,222,3.0,8.0,65,0.00,,---,0.00,VWS V14.01,2013-01-16 06:03:00,
2013-01-16 00:08:00,24.1,14.4,29.74,SW,221,5.0,8.0,66,0.00,,---,0.00,VWS V14.01,2013-01-16 06:08:00,
2013-01-16 00:13:00,24.2,14.1,29.74,SW,233,4.0,9.0,65,0.00,,---,0.00,VWS V14.01,2013-01-16 06:13:00,
2013-01-16 00:18:00,24.4,14.7,29.73,South,182,0.0,9.0,66,0.00,,---,0.00,VWS V14.01,2013-01-16 06:18:00,
2013-01-16 00:23:00,24.4,14.7,29.72,SW,217,2.0,11.0,66,0.00,,---,0.00,VWS V14.01,2013-01-16 06:23:00,
2013-01-16 00:28:00,24.5,14.8,29.72,SW,218,3.0,11.0,66,0.00,,---,0.00,VWS V14.01,2013-01-16 06:28:00,
2013-01-16 00:33:00,24.5,14.8,29.72,SW,235,3.0,11.0,66,0.00,,---,0.00,VWS V14.01,2013-01-16 06:33:00,
2013-01-16 00:38:00,24.5,15.1,29.71,SSW,209,4.0,11.0,67,0.00,,---,0.00,VWS V14.01,2013-01-16 06:38:00,
2013-01-16 00:43:00,24.6,15.2,29.71,SW,236,7.0,11.0,67,0.00,,---,0.00,VWS V14.01,2013-01-16 06:43:00,
2013-01-16 00:48:00,24.7,15.7,29.71,SSW,196,8.0,13.0,68,0.00,,---,0.00,VWS V14.01,2013-01-16 06:48:00,
2013-01-16 00:53:00,24.6,15.9,29.70,SW,218,4.0,13.0,69,0.00,,---,0.00,VWS V14.01,2013-01-16 06:53:00,
2013-01-16 00:58:00,24.5,16.1,29.71,SW,220,5.0,13.0,70,0.00,,---,0.00,VWS V14.01,2013-01-16 06:58:00,
2013-01-16 01:03:00,24.4,16.4,29.69,SW,221,7.0,7.0,71,0.00,,---,0.00,VWS V14.01,2013-01-16 07:03:00,
2013-01-16 01:08:00,24.3,16.3,29.69,SW,223,4.0,9.0,71,0.00,,---,0.00,VWS V14.01,2013-01-16 07:08:00,
2013-01-16 01:13:00,24.4,16.7,29.69,SSW,213,5.0,9.0,72,0.00,,---,0.00,VWS V14.01,2013-01-16 07:13:00,
2013-01-16 01:18:00,24.4,17.0,29.70,SW,217,5.0,9.0,73,0.00,,---,0.00,VWS V14.01,2013-01-16 07:18:00,
2013-01-16 01:23:00,24.3,17.2,29.69,WSW,237,0.0,12.0,74,0.00,,---,0.00,VWS V14.01,2013-01-16 07:23:00,
2013-01-16 01:28:00,24.3,17.5,29.68,SW,217,2.0,12.0,75,0.00,,---,0.00,VWS V14.01,2013-01-16 07:28:00,
2013-01-16 01:33:00,24.2,17.7,29.68,SSW,210,2.0,4.0,76,0.00,,---,0.00,VWS V14.01,2013-01-16 07:33:00,
2013-01-16 01:38:00,24.2,18.0,29.68,SSW,211,5.0,10.0,77,0.00,,---,0.00,VWS V14.01,2013-01-16 07:38:00,
2013-01-16 01:43:00,24.3,18.1,29.68,SW,219,6.0,10.0,77,0.00,,---,0.00,VWS V14.01,2013-01-16 07:43:00,
2013-01-16 01:48:00,24.3,18.4,29.67,SW,222,11.0,11.0,78,0.00,,---,0.00,VWS V14.01,2013-01-16 07:48:00,
2013-01-16 01:53:00,24.3,18.4,29.67,SW,216,3.0,11.0,78,0.00,,---,0.00,VWS V14.01,2013-01-16 07:53:00,
2013-01-16 01:58:00,24.3,18.7,29.67,SW,223,4.0,11.0,79,0.00,,---,0.00,VWS V14.01,2013-01-16 07:58:00,
2013-01-16 02:03:00,24.4,19.1,29.67,SSW,209,4.0,7.0,80,0.00,,---,0.00,VWS V14.01,2013-01-16 08:03:00,
2013-01-16 02:08:00,24.6,19.3,29.66,SSW,199,5.0,11.0,80,0.00,,---,0.00,VWS V14.01,2013-01-16 08:08:00,
2013-01-16 02:13:00,24.8,19.8,29.67,SW,226,4.0,11.0,81,0.00,,---,0.00,VWS V14.01,2013-01-16 08:13:00,
2013-01-16 02:18:00,24.8,19.8,29.66,SSW,210,0.0,11.0,81,0.00,,---,0.00,VWS V14.01,2013-01-16 08:18:00,
2013-01-16 02:23:00,24.9,19.9,29.66,SSW,207,2.0,11.0,81,0.00,,---,0.00,VWS V14.01,2013-01-16 08:23:00,
2013-01-16 02:28:00,25.0,20.3,29.66,SW,220,6.0,11.0,82,0.00,,---,0.00,VWS V14.01,2013-01-16 08:28:00,
2013-01-16 02:33:00,25.0,20.3,29.67,WSW,245,1.0,2.0,82,0.00,,---,0.00,VWS V14.01,2013-01-16 08:33:00,
2013-01-16 02:38:00,25.0,20.3,29.67,SW,231,4.0,8.0,82,0.00,,---,0.00,VWS V14.01,2013-01-16 08:38:00,
2013-01-16 02:43:00,25.1,20.4,29.68,SW,216,3.0,8.0,82,0.00,,---,0.00,VWS V14.01,2013-01-16 08:43:00,
2013-01-16 02:48:00,25.1,20.7,29.68,WSW,237,2.0,8.0,83,0.00,,---,0.00,VWS V14.01,2013-01-16 08:48:00,
2013-01-16 02:53:00,25.1,20.7,29.68,West,261,1.0,8.0,83,0.00,,---,0.00,VWS V14.01,2013-01-16 08:53:00,
2013-01-16 02:58:00,25.2,20.8,29.68,SW,221,2.0,8.0,83,0.00,,---,0.00,VWS V14.01,2013-01-16 08:58:00,
2013-01-16 03:03:00,25.4,21.2,29.68,WSW,237,2.0,5.0,84,0.00,,---,0.00,VWS V14.01,2013-01-16 09:03:00,
2013-01-16 03:08:00,25.5,21.4,29.67,SW,236,0.0,5.0,84,0.00,,---,0.00,VWS V14.01,2013-01-16 09:08:00,
2013-01-16 03:13:00,25.5,21.4,29.67,SW,219,2.0,5.0,84,0.00,,---,0.00,VWS V14.01,2013-01-16 09:13:00,
2013-01-16 03:18:00,25.6,21.5,29.67,West,259,0.0,5.0,84,0.00,,---,0.00,VWS V14.01,2013-01-16 09:18:00,
2013-01-16 03:23:00,25.7,21.8,29.66,SSW,210,0.0,7.0,85,0.00,,---,0.00,VWS V14.01,2013-01-16 09:23:00,
2013-01-16 03:28:00,25.7,21.8,29.66,SSW,193,0.0,7.0,85,0.00,,---,0.00,VWS V14.01,2013-01-16 09:28:00,
2013-01-16 03:33:00,25.7,21.8,29.66,SSW,207,2.0,5.0,85,0.00,,---,0.00,VWS V14.01,2013-01-16 09:33:00,
2013-01-16 03:38:00,25.8,21.9,29.66,SW,226,0.0,5.0,85,0.00,,---,0.00,VWS V14.01,2013-01-16 09:38:00,
2013-01-16 03:43:00,25.9,22.3,29.65,SW,221,0.0,5.0,86,0.00,,---,0.00,VWS V14.01,2013-01-16 09:43:00,
2013-01-16 03:48:00,26.0,22.4,29.66,SW,227,1.0,5.0,86,0.00,,---,0.00,VWS V14.01,2013-01-16 09:48:00,
2013-01-16 03:53:00,26.2,22.6,29.66,SW,215,0.0,5.0,86,0.00,,---,0.00,VWS V14.01,2013-01-16 09:53:00,
2013-01-16 03:58:00,26.3,22.7,29.66,SW,215,0.0,5.0,86,0.00,,---,0.00,VWS V14.01,2013-01-16 09:58:00,
2013-01-16 04:03:00,26.3,22.7,29.66,SW,215,0.0,1.0,86,0.00,,---,0.00,VWS V14.01,2013-01-16 10:03:00,
2013-01-16 04:08:00,26.4,22.8,29.66,SW,215,0.0,2.0,86,0.00,,---,0.00,VWS V14.01,2013-01-16 10:08:00,
2013-01-16 04:13:00,26.5,22.9,29.66,WSW,242,0.0,2.0,86,0.00,,---,0.00,VWS V14.01,2013-01-16 10:13:00,
2013-01-16 04:18:00,26.6,23.0,29.66,WSW,242,0.0,2.0,86,0.00,,---,0.00,VWS V14.01,2013-01-16 10:18:00,
2013-01-16 04:23:00,26.9,23.3,29.66,SW,234,0.0,3.0,86,0.00,,---,0.00,VWS V14.01,2013-01-16 10:23:00,
2013-01-16 04:28:00,27.1,23.5,29.65,SW,234,1.0,3.0,86,0.00,,---,0.00,VWS V14.01,2013-01-16 10:28:00,
2013-01-16 04:33:00,27.4,23.8,29.64,SW,234,0.0,1.0,86,0.00,,---,0.00,VWS V14.01,2013-01-16 10:33:00,
2013-01-16 04:38:00,27.5,23.9,29.65,SW,234,1.0,2.0,86,0.00,,---,0.00,VWS V14.01,2013-01-16 10:38:00,
2013-01-16 04:43:00,27.6,24.2,29.64,SW,234,0.0,2.0,87,0.00,,---,0.00,VWS V14.01,2013-01-16 10:43:00,
2013-01-16 04:48:00,27.7,24.3,29.66,West,278,0.0,3.0,87,0.00,,---,0.00,VWS V14.01,2013-01-16 10:48:00,
2013-01-16 04:53:00,27.9,24.5,29.66,West,278,0.0,3.0,87,0.00,,---,0.00,VWS V14.01,2013-01-16 10:53:00,
2013-01-16 04:58:00,28.1,24.7,29.66,West,277,0.0,3.0,87,0.00,,---,0.00,VWS V14.01,2013-01-16 10:58:00,
2013-01-16 05:03:00,28.3,24.9,29.66,West,277,0.0,3.0,87,0.00,,---,0.00,VWS V14.01,2013-01-16 11:03:00,
2013-01-16 05:08:00,28.7,25.3,29.65,West,277,0.0,3.0,87,0.00,,---,0.00,VWS V14.01,2013-01-16 11:08:00,
2013-01-16 05:13:00,28.9,25.5,29.65,West,277,0.0,3.0,87,0.00,,---,0.00,VWS V14.01,2013-01-16 11:13:00,
2013-01-16 05:18:00,29.0,25.6,29.65,West,277,0.0,3.0,87,0.00,,---,0.00,VWS V14.01,2013-01-16 11:18:00,
2013-01-16 05:23:00,29.2,25.8,29.64,WSW,254,0.0,3.0,87,0.00,,---,0.00,VWS V14.01,2013-01-16 11:23:00,
2013-01-16 05:28:00,29.2,25.8,29.65,WSW,254,0.0,3.0,87,0.00,,---,0.00,VWS V14.01,2013-01-16 11:28:00,
2013-01-16 05:33:00,29.2,25.8,29.64,WSW,254,0.0,1.0,87,0.00,,---,0.00,VWS V14.01,2013-01-16 11:33:00,
2013-01-16 05:38:00,29.3,25.9,29.64,WSW,254,0.0,1.0,87,0.00,,---,0.00,VWS V14.01,2013-01-16 11:38:00,
2013-01-16 05:43:00,29.4,26.0,29.65,WSW,254,0.0,1.0,87,0.00,,---,0.00,VWS V14.01,2013-01-16 11:43:00,
2013-01-16 05:48:00,29.6,26.2,29.65,NW,311,0.0,2.0,87,0.00,,---,0.00,VWS V14.01,2013-01-16 11:48:00,
2013-01-16 05:53:00,29.8,26.4,29.65,NW,321,0.0,2.0,87,0.00,,---,0.00,VWS V14.01,2013-01-16 11:53:00,
2013-01-16 05:58:00,30.0,26.9,29.66,NW,309,1.0,5.0,88,0.00,,---,0.00,VWS V14.01,2013-01-16 11:58:00,
2013-01-16 06:03:00,30.3,27.2,29.65,West,264,0.0,5.0,88,0.00,,---,0.00,VWS V14.01,2013-01-16 12:03:00,
2013-01-16 06:08:00,30.6,27.2,29.65,West,271,0.0,5.0,87,0.00,,---,0.00,VWS V14.01,2013-01-16 12:08:00,
2013-01-16 06:13:00,31.0,27.6,29.65,WNW,295,0.0,7.0,87,0.00,,---,0.00,VWS V14.01,2013-01-16 12:13:00,
2013-01-16 06:18:00,31.2,27.5,29.65,NW,315,1.0,7.0,86,0.00,,---,0.00,VWS V14.01,2013-01-16 12:18:00,
2013-01-16 06:23:00,31.4,27.7,29.65,West,281,1.0,7.0,86,0.00,,---,0.00,VWS V14.01,2013-01-16 12:23:00,
2013-01-16 06:28:00,31.5,27.5,29.65,NW,317,2.0,7.0,85,0.00,,---,0.00,VWS V14.01,2013-01-16 12:28:00,
2013-01-16 06:33:00,31.5,27.2,29.66,West,269,3.0,3.0,84,0.00,,---,0.00,VWS V14.01,2013-01-16 12:33:00,
2013-01-16 06:38:00,31.5,27.2,29.66,NW,309,0.0,4.0,84,0.00,,---,0.00,VWS V14.01,2013-01-16 12:38:00,
2013-01-16 06:43:00,31.6,27.0,29.66,WNW,283,2.0,6.0,83,0.00,,---,0.00,VWS V14.01,2013-01-16 12:43:00,
2013-01-16 06:48:00,31.7,26.8,29.66,NW,311,2.0,6.0,82,0.00,,---,0.00,VWS V14.01,2013-01-16 12:48:00,
2013-01-16 06:53:00,31.7,26.8,29.66,WNW,295,0.0,10.0,82,0.00,,---,0.00,VWS V14.01,2013-01-16 12:53:00,
2013-01-16 06:58:00,31.8,26.6,29.66,NNW,333,0.0,10.0,81,0.00,,---,0.00,VWS V14.01,2013-01-16 12:58:00,
2013-01-16 07:03:00,31.8,26.4,29.67,WNW,302,0.0,1.0,80,0.00,,---,0.00,VWS V14.01,2013-01-16 13:03:00,
2013-01-16 07:08:00,31.7,25.9,29.67,West,263,3.0,6.0,79,0.00,,---,0.00,VWS V14.01,2013-01-16 13:08:00,
2013-01-16 07:13:00,31.7,25.9,29.67,WNW,283,0.0,6.0,79,0.00,,---,0.00,VWS V14.01,2013-01-16 13:13:00,
2013-01-16 07:18:00,31.6,25.5,29.68,West,281,1.0,6.0,78,0.00,,---,0.00,VWS V14.01,2013-01-16 13:18:00,
2013-01-16 07:23:00,31.4,25.0,29.68,West,281,7.0,7.0,77,0.00,,---,0.00,VWS V14.01,2013-01-16 13:23:00,
2013-01-16 07:28:00,31.2,24.5,29.69,West,271,0.0,7.0,76,0.00,,---,0.00,VWS V14.01,2013-01-16 13:28:00,
2013-01-16 07:33:00,30.9,24.2,29.70,WSW,258,3.0,10.0,76,0.00,,---,0.00,VWS V14.01,2013-01-16 13:33:00,
2013-01-16 07:38:00,30.6,24.0,29.70,NW,308,0.0,10.0,76,0.00,,---,0.00,VWS V14.01,2013-01-16 13:38:00,
2013-01-16 07:43:00,30.4,23.8,29.71,WNW,298,0.0,10.0,76,0.00,,---,0.00,VWS V14.01,2013-01-16 13:43:00,
2013-01-16 07:48:00,30.1,23.5,29.71,SW,215,3.0,10.0,76,0.00,,---,0.00,VWS V14.01,2013-01-16 13:48:00,
2013-01-16 07:53:00,29.9,23.0,29.71,WNW,296,0.0,10.0,75,0.00,,---,0.00,VWS V14.01,2013-01-16 13:53:00,
2013-01-16 07:58:00,29.6,22.7,29.70,WNW,294,0.0,10.0,75,0.00,,---,0.00,VWS V14.01,2013-01-16 13:58:00,
2013-01-16 08:03:00,29.3,22.4,29.70,WSW,248,0.0,3.0,75,0.00,,---,0.00,VWS V14.01,2013-01-16 14:03:00,
2013-01-16 08:08:00,29.0,22.1,29.71,WNW,289,0.0,6.0,75,0.00,,---,0.00,VWS V14.01,2013-01-16 14:08:00,
2013-01-16 08:13:00,28.8,21.9,29.71,WNW,289,0.0,6.0,75,0.00,,---,0.00,VWS V14.01,2013-01-16 14:13:00,
2013-01-16 08:18:00,28.5,21.6,29.71,West,272,0.0,7.0,75,0.00,,---,0.00,VWS V14.01,2013-01-16 14:18:00,
2013-01-16 08:23:00,28.3,21.4,29.71,West,276,0.0,7.0,75,0.00,,---,0.00,VWS V14.01,2013-01-16 14:23:00,
2013-01-16 08:28:00,28.0,21.1,29.72,West,276,0.0,7.0,75,0.00,,---,0.00,VWS V14.01,2013-01-16 14:28:00,
2013-01-16 08:33:00,27.8,20.9,29.72,NW,310,0.0,1.0,75,0.00,,---,0.00,VWS V14.01,2013-01-16 14:33:00,
2013-01-16 08:38:00,27.7,20.8,29.73,SW,232,0.0,1.0,75,0.00,,---,0.00,VWS V14.01,2013-01-16 14:38:00,
2013-01-16 08:43:00,27.6,20.7,29.73,SW,236,0.0,2.0,75,0.00,,---,0.00,VWS V14.01,2013-01-16 14:43:00,
2013-01-16 08:48:00,27.5,20.3,29.74,NNW,331,2.0,4.0,74,0.00,,---,0.00,VWS V14.01,2013-01-16 14:48:00,
2013-01-16 08:53:00,27.5,20.0,29.74,NNW,347,0.0,6.0,73,0.00,,---,0.00,VWS V14.01,2013-01-16 14:53:00,
2013-01-16 08:58:00,27.4,19.9,29.75,North,355,0.0,6.0,73,0.00,,---,0.00,VWS V14.01,2013-01-16 14:58:00,
2013-01-16 09:03:00,27.3,19.8,29.75,North,349,0.0,1.0,73,0.00,,---,0.00,VWS V14.01,2013-01-16 15:03:00,
2013-01-16 09:08:00,27.2,19.7,29.76,NNW,331,0.0,3.0,73,0.00,,---,0.00,VWS V14.01,2013-01-16 15:08:00,
2013-01-16 09:13:00,27.0,19.5,29.77,West,279,1.0,3.0,73,0.00,,---,0.00,VWS V14.01,2013-01-16 15:13:00,
2013-01-16 09:18:00,26.9,19.4,29.77,WNW,296,0.0,4.0,73,0.00,,---,0.00,VWS V14.01,2013-01-16 15:18:00,
2013-01-16 09:23:00,26.7,19.2,29.78,WNW,299,1.0,4.0,73,0.00,,---,0.00,VWS V14.01,2013-01-16 15:23:00,
2013-01-16 09:28:00,26.7,19.5,29.78,NW,307,0.0,4.0,74,0.00,,---,0.00,VWS V14.01,2013-01-16 15:28:00,
2013-01-16 09:33:00,26.6,19.4,29.78,NNW,337,0.0,1.0,74,0.00,,---,0.00,VWS V14.01,2013-01-16 15:33:00,
2013-01-16 09:38:00,26.6,19.4,29.78,NNW,338,0.0,1.0,74,0.00,,---,0.00,VWS V14.01,2013-01-16 15:38:00,
2013-01-16 09:43:00,26.6,19.4,29.79,NNW,338,0.0,1.0,74,0.00,,---,0.00,VWS V14.01,2013-01-16 15:43:00,
2013-01-16 09:48:00,26.7,19.5,29.79,NNW,346,0.0,2.0,74,0.00,,---,0.00,VWS V14.01,2013-01-16 15:48:00,
2013-01-16 09:53:00,26.7,19.2,29.79,WNW,300,1.0,7.0,73,0.00,,---,0.00,VWS V14.01,2013-01-16 15:53:00,
2013-01-16 09:58:00,26.6,19.1,29.79,WSW,254,5.0,7.0,73,0.00,,---,0.00,VWS V14.01,2013-01-16 15:58:00,
2013-01-16 10:03:00,26.4,18.9,29.79,NW,322,2.0,3.0,73,0.00,,---,0.00,VWS V14.01,2013-01-16 16:03:00,
2013-01-16 10:08:00,26.5,19.4,29.80,NW,310,0.0,3.0,74,0.00,,---,0.00,VWS V14.01,2013-01-16 16:08:00,
2013-01-16 10:13:00,26.4,19.2,29.80,NW,321,0.0,3.0,74,0.00,,---,0.00,VWS V14.01,2013-01-16 16:13:00,
2013-01-16 10:18:00,26.2,18.7,29.81,NW,310,7.0,7.0,73,0.00,,---,0.00,VWS V14.01,2013-01-16 16:18:00,
2013-01-16 10:23:00,25.8,18.7,29.81,NW,320,2.0,7.0,74,0.00,,---,0.00,VWS V14.01,2013-01-16 16:23:00,
2013-01-16 10:28:00,25.6,18.5,29.81,North,360,1.0,9.0,74,0.00,,---,0.00,VWS V14.01,2013-01-16 16:28:00,
2013-01-16 10:33:00,25.5,18.7,29.81,NW,310,0.0,2.0,75,0.00,,---,0.00,VWS V14.01,2013-01-16 16:33:00,
2013-01-16 10:38:00,25.6,18.5,29.82,NNW,331,0.0,2.0,74,0.00,,---,0.00,VWS V14.01,2013-01-16 16:38:00,
2013-01-16 10:43:00,25.7,18.6,29.82,North,11,0.0,3.0,74,0.00,,---,0.00,VWS V14.01,2013-01-16 16:43:00,
2013-01-16 10:48:00,25.9,18.8,29.82,NW,323,1.0,3.0,74,0.00,,---,0.00,VWS V14.01,2013-01-16 16:48:00,
2013-01-16 10:53:00,26.1,18.6,29.82,NW,311,1.0,3.0,73,0.00,,---,0.00,VWS V14.01,2013-01-16 16:53:00,
2013-01-16 10:58:00,26.2,18.7,29.83,North,355,2.0,3.0,73,0.00,,---,0.00,VWS V14.01,2013-01-16 16:58:00,
2013-01-16 11:03:00,26.1,18.3,29.83,NNE,26,1.0,6.0,72,0.00,,---,0.00,VWS V14.01,2013-01-16 17:03:00,
2013-01-16 11:08:00,25.8,18.0,29.83,North,5,3.0,6.0,72,0.00,,---,0.00,VWS V14.01,2013-01-16 17:08:00,
2013-01-16 11:13:00,25.7,17.9,29.83,North,10,4.0,6.0,72,0.00,,---,0.00,VWS V14.01,2013-01-16 17:13:00,
2013-01-16 11:18:00,25.5,17.8,29.83,North,360,1.0,6.0,72,0.00,,---,0.00,VWS V14.01,2013-01-16 17:18:00,
2013-01-16 11:23:00,25.5,17.8,29.83,North,360,1.0,6.0,72,0.00,,---,0.00,VWS V14.01,2013-01-16 17:23:00,
2013-01-16 11:28:00,25.6,17.8,29.84,NNW,340,2.0,6.0,72,0.00,,---,0.00,VWS V14.01,2013-01-16 17:28:00,
2013-01-16 11:33:00,25.7,17.6,29.84,North,360,1.0,3.0,71,0.00,,---,0.00,VWS V14.01,2013-01-16 17:33:00,
2013-01-16 11:38:00,25.8,18.0,29.84,North,9,0.0,6.0,72,0.00,,---,0.00,VWS V14.01,2013-01-16 17:38:00,
2013-01-16 11:43:00,25.8,17.4,29.84,NW,322,0.0,6.0,70,0.00,,---,0.00,VWS V14.01,2013-01-16 17:43:00,
2013-01-16 11:48:00,25.8,16.4,29.84,NNE,13,0.0,7.0,67,0.00,,---,0.00,VWS V14.01,2013-01-16 17:48:00,
2013-01-16 11:53:00,25.8,15.7,29.84,North,360,0.0,7.0,65,0.00,,---,0.00,VWS V14.01,2013-01-16 17:53:00,
2013-01-16 11:58:00,25.6,15.1,29.84,NNW,331,2.0,11.0,64,0.00,,---,0.00,VWS V14.01,2013-01-16 17:58:00,
2013-01-16 12:03:00,25.4,14.9,29.84,NNE,18,2.0,3.0,64,0.00,,---,0.00,VWS V14.01,2013-01-16 18:03:00,
2013-01-16 12:08:00,25.6,15.5,29.85,NNW,344,1.0,5.0,65,0.00,,---,0.00,VWS V14.01,2013-01-16 18:08:00,
2013-01-16 12:13:00,25.5,14.3,29.85,North,5,0.0,5.0,62,0.00,,---,0.00,VWS V14.01,2013-01-16 18:13:00,
2013-01-16 12:18:00,25.5,14.3,29.85,NNW,331,0.0,5.0,62,0.00,,---,0.00,VWS V14.01,2013-01-16 18:18:00,
2013-01-16 12:23:00,25.4,14.2,29.85,NNW,334,2.0,6.0,62,0.00,,---,0.00,VWS V14.01,2013-01-16 18:23:00,
2013-01-16 12:28:00,25.4,14.2,29.85,NW,311,0.0,6.0,62,0.00,,---,0.00,VWS V14.01,2013-01-16 18:28:00,
2013-01-16 12:33:00,25.3,13.8,29.86,North,355,0.0,3.0,61,0.00,,---,0.00,VWS V14.01,2013-01-16 18:33:00,
2013-01-16 12:38:00,25.6,14.4,29.85,North,355,0.0,3.0,62,0.00,,---,0.00,VWS V14.01,2013-01-16 18:38:00,
2013-01-16 12:43:00,26.0,13.3,29.86,WNW,284,0.0,3.0,58,0.00,,---,0.00,VWS V14.01,2013-01-16 18:43:00,
2013-01-16 12:48:00,26.1,13.4,29.86,North,360,0.0,3.0,58,0.00,,---,0.00,VWS V14.01,2013-01-16 18:48:00,
2013-01-16 12:53:00,26.1,13.0,29.87,North,355,5.0,12.0,57,0.00,,---,0.00,VWS V14.01,2013-01-16 18:53:00,
2013-01-16 12:58:00,25.6,10.4,29.87,North,11,3.0,12.0,52,0.00,,---,0.00,VWS V14.01,2013-01-16 18:58:00,
2013-01-16 13:03:00,25.2,7.3,29.87,North,5,5.0,7.0,46,0.00,,---,0.00,VWS V14.01,2013-01-16 19:03:00,
2013-01-16 13:08:00,25.0,9.0,29.88,NNW,333,2.0,7.0,50,0.00,,---,0.00,VWS V14.01,2013-01-16 19:08:00,
2013-01-16 13:13:00,25.1,9.1,29.88,NNW,335,0.0,7.0,50,0.00,,---,0.00,VWS V14.01,2013-01-16 19:13:00,
2013-01-16 13:18:00,25.3,9.7,29.89,North,360,0.0,7.0,51,0.00,,---,0.00,VWS V14.01,2013-01-16 19:18:00,
2013-01-16 13:23:00,25.4,10.7,29.89,NW,319,0.0,7.0,53,0.00,,---,0.00,VWS V14.01,2013-01-16 19:23:00,
2013-01-16 13:28:00,25.2,10.5,29.89,North,355,0.0,7.0,53,0.00,,---,0.00,VWS V14.01,2013-01-16 19:28:00,
2013-01-16 13:33:00,25.1,11.2,29.90,NNW,333,1.0,2.0,55,0.00,,---,0.00,VWS V14.01,2013-01-16 19:33:00,
2013-01-16 13:38:00,24.9,9.8,29.90,NNW,340,0.0,4.0,52,0.00,,---,0.00,VWS V14.01,2013-01-16 19:38:00,
2013-01-16 13:43:00,24.8,10.5,29.90,North,360,0.0,4.0,54,0.00,,---,0.00,VWS V14.01,2013-01-16 19:43:00,
2013-01-16 13:48:00,24.8,10.5,29.90,NNW,340,0.0,4.0,54,0.00,,---,0.00,VWS V14.01,2013-01-16 19:48:00,
2013-01-16 13:53:00,24.8,10.9,29.90,North,5,0.0,4.0,55,0.00,,---,0.00,VWS V14.01,2013-01-16 19:53:00,
2013-01-16 13:58:00,24.8,11.7,29.91,NNW,340,1.0,4.0,57,0.00,,---,0.00,VWS V14.01,2013-01-16 19:58:00,
2013-01-16 14:03:00,24.8,9.2,29.92,NNW,333,3.0,4.0,51,0.00,,---,0.00,VWS V14.01,2013-01-16 20:03:00,
2013-01-16 14:08:00,24.4,8.0,29.92,North,5,0.0,7.0,49,0.00,,---,0.00,VWS V14.01,2013-01-16 20:08:00,
2013-01-16 14:13:00,24.3,7.9,29.92,NW,319,0.0,7.0,49,0.00,,---,0.00,VWS V14.01,2013-01-16 20:13:00,
2013-01-16 14:18:00,24.4,7.1,29.94,North,360,3.0,11.0,47,0.00,,---,0.00,VWS V14.01,2013-01-16 20:18:00,
2013-01-16 14:23:00,24.3,7.0,29.94,NNE,13,1.0,11.0,47,0.00,,---,0.00,VWS V14.01,2013-01-16 20:23:00,
2013-01-16 14:28:00,24.3,7.4,29.94,NNW,344,0.0,11.0,48,0.00,,---,0.00,VWS V14.01,2013-01-16 20:28:00,
2013-01-16 14:33:00,24.1,7.7,29.94,North,9,1.0,3.0,49,0.00,,---,0.00,VWS V14.01,2013-01-16 20:33:00,
2013-01-16 14:38:00,24.1,9.5,29.94,North,360,0.0,4.0,53,0.00,,---,0.00,VWS V14.01,2013-01-16 20:38:00,
2013-01-16 14:43:00,24.1,9.5,29.95,North,355,0.0,7.0,53,0.00,,---,0.00,VWS V14.01,2013-01-16 20:43:00,
2013-01-16 14:48:00,23.9,9.7,29.96,NNW,336,1.0,7.0,54,0.00,,---,0.00,VWS V14.01,2013-01-16 20:48:00,
2013-01-16 14:53:00,23.6,7.3,29.96,North,355,1.0,7.0,49,0.00,,---,0.00,VWS V14.01,2013-01-16 20:53:00,
2013-01-16 14:58:00,23.4,5.2,29.96,NNW,348,2.0,7.0,45,0.00,,---,0.00,VWS V14.01,2013-01-16 20:58:00,
2013-01-16 15:03:00,23.2,4.5,29.96,North,5,6.0,6.0,44,0.00,,---,0.00,VWS V14.01,2013-01-16 21:03:00,
2013-01-16 15:08:00,23.0,4.8,29.96,North,360,2.0,6.0,45,0.00,,---,0.00,VWS V14.01,2013-01-16 21:08:00,
2013-01-16 15:13:00,23.1,5.4,29.97,North,360,1.0,6.0,46,0.00,,---,0.00,VWS V14.01,2013-01-16 21:13:00,
2013-01-16 15:18:00,23.3,5.6,29.97,North,360,0.0,6.0,46,0.00,,---,0.00,VWS V14.01,2013-01-16 21:18:00,
2013-01-16 15:23:00,23.1,4.9,29.97,North,11,0.0,6.0,45,0.00,,---,0.00,VWS V14.01,2013-01-16 21:23:00,
2013-01-16 15:28:00,22.9,4.8,29.98,North,355,6.0,9.0,45,0.00,,---,0.00,VWS V14.01,2013-01-16 21:28:00,
2013-01-16 15:33:00,22.6,4.5,29.98,NNE,13,1.0,3.0,45,0.00,,---,0.00,VWS V14.01,2013-01-16 21:33:00,
2013-01-16 15:38:00,22.5,4.9,29.99,NNW,342,0.0,5.0,46,0.00,,---,0.00,VWS V14.01,2013-01-16 21:38:00,
2013-01-16 15:43:00,22.4,4.3,30.00,NNW,333,1.0,5.0,45,0.00,,---,0.00,VWS V14.01,2013-01-16 21:43:00,
2013-01-16 15:48:00,22.2,4.6,30.00,NNW,334,0.0,5.0,46,0.00,,---,0.00,VWS V14.01,2013-01-16 21:48:00,
2013-01-16 15:53:00,21.9,3.3,30.00,North,5,3.0,6.0,44,0.00,,---,0.00,VWS V14.01,2013-01-16 21:53:00,
2013-01-16 15:58:00,21.4,1.9,30.01,NNW,340,1.0,7.0,42,0.00,,---,0.00,VWS V14.01,2013-01-16 21:58:00,
2013-01-16 16:03:00,21.1,2.1,30.01,North,355,2.0,5.0,43,0.00,,---,0.00,VWS V14.01,2013-01-16 22:03:00,
2013-01-16 16:08:00,20.8,1.8,30.02,North,9,3.0,6.0,43,0.00,,---,0.00,VWS V14.01,2013-01-16 22:08:00,
2013-01-16 16:13:00,20.6,1.7,30.02,North,360,0.0,6.0,43,0.00,,---,0.00,VWS V14.01,2013-01-16 22:13:00,
2013-01-16 16:18:00,20.5,2.1,30.03,NNW,347,1.0,6.0,44,0.00,,---,0.00,VWS V14.01,2013-01-16 22:18:00,
2013-01-16 16:23:00,20.3,1.9,30.03,NNW,338,0.0,6.0,44,0.00,,---,0.00,VWS V14.01,2013-01-16 22:23:00,
2013-01-16 16:28:00,20.0,0.6,30.04,North,5,3.0,6.0,42,0.00,,---,0.00,VWS V14.01,2013-01-16 22:28:00,
2013-01-16 16:33:00,19.7,-0.2,30.04,North,10,1.0,6.0,41,0.00,,---,0.00,VWS V14.01,2013-01-16 22:33:00,
2013-01-16 16:38:00,19.5,1.1,30.04,NNW,345,0.0,6.0,44,0.00,,---,0.00,VWS V14.01,2013-01-16 22:38:00,
2013-01-16 16:43:00,19.1,0.3,30.05,North,5,0.0,6.0,43,0.00,,---,0.00,VWS V14.01,2013-01-16 22:43:00,
2013-01-16 16:48:00,18.9,-0.4,30.05,NNW,338,0.0,7.0,42,0.00,,---,0.00,VWS V14.01,2013-01-16 22:48:00,
2013-01-16 16:53:00,18.7,-0.1,30.05,NNW,348,1.0,7.0,43,0.00,,---,0.00,VWS V14.01,2013-01-16 22:53:00,
2013-01-16 16:58:00,18.4,0.6,30.06,NNW,348,0.0,7.0,45,0.00,,---,0.00,VWS V14.01,2013-01-16 22:58:00,
2013-01-16 17:03:00,18.1,-0.1,30.07,NW,311,0.0,3.0,44,0.00,,---,0.00,VWS V14.01,2013-01-16 23:03:00,
2013-01-16 17:08:00,17.8,0.1,30.08,NNW,337,0.0,3.0,45,0.00,,---,0.00,VWS V14.01,2013-01-16 23:08:00,
2013-01-16 17:13:00,17.6,0.3,30.08,NW,324,2.0,3.0,46,0.00,,---,0.00,VWS V14.01,2013-01-16 23:13:00,
2013-01-16 17:18:00,17.3,-0.4,30.07,NNW,327,0.0,3.0,45,0.00,,---,0.00,VWS V14.01,2013-01-16 23:18:00,
2013-01-16 17:23:00,17.1,0.3,30.07,North,355,2.0,3.0,47,0.00,,---,0.00,VWS V14.01,2013-01-16 23:23:00,
2013-01-16 17:28:00,16.9,-0.8,30.08,NNW,344,0.0,3.0,45,0.00,,---,0.00,VWS V14.01,2013-01-16 23:28:00,
2013-01-16 17:33:00,16.6,-1.5,30.09,NNW,344,0.0,0.0,44,0.00,,---,0.00,VWS V14.01,2013-01-16 23:33:00,
2013-01-16 17:38:00,16.4,-0.8,30.10,WNW,300,0.0,2.0,46,0.00,,---,0.00,VWS V14.01,2013-01-16 23:38:00,
2013-01-16 17:43:00,16.1,-2.0,30.11,NNW,340,0.0,2.0,44,0.00,,---,0.00,VWS V14.01,2013-01-16 23:43:00,
2013-01-16 17:48:00,15.9,-2.6,30.11,ENE,63,2.0,2.0,43,0.00,,---,0.00,VWS V14.01,2013-01-16 23:48:00,
2013-01-16 17:53:00,15.8,-3.2,30.11,NNW,346,0.0,2.0,42,0.00,,---,0.00,VWS V14.01,2013-01-16 23:53:00,
2013-01-16 17:58:00,15.8,-2.7,30.11,North,349,0.0,2.0,43,0.00,,---,0.00,VWS V14.01,2013-01-16 23:58:00,
2013-01-16 18:03:00,15.6,-2.4,30.12,North,351,0.0,0.0,44,0.00,,---,0.00,VWS V14.01,2013-01-17 00:03:00,
2013-01-16 18:08:00,15.3,-3.7,30.12,North,355,1.0,5.0,42,0.00,,---,0.00,VWS V14.01,2013-01-17 00:08:00,
2013-01-16 18:13:00,15.2,-4.3,30.13,NNW,348,1.0,5.0,41,0.00,,---,0.00,VWS V14.01,2013-01-17 00:13:00,
2013-01-16 18:18:00,15.0,-3.9,30.15,North,355,0.0,5.0,42,0.00,,---,0.00,VWS V14.01,2013-01-17 00:18:00,
2013-01-16 18:23:00,14.8,-4.1,30.14,WNW,287,0.0,5.0,42,0.00,,---,0.00,VWS V14.01,2013-01-17 00:23:00,
2013-01-16 18:28:00,14.6,-5.3,30.14,North,350,0.0,5.0,40,0.00,,---,0.00,VWS V14.01,2013-01-17 00:28:00,
2013-01-16 18:33:00,14.4,-4.5,30.15,North,350,0.0,0.0,42,0.00,,---,0.00,VWS V14.01,2013-01-17 00:33:00,
2013-01-16 18:38:00,14.1,-3.8,30.15,North,349,0.0,0.0,44,0.00,,---,0.00,VWS V14.01,2013-01-17 00:38:00,
2013-01-16 18:43:00,13.8,-5.0,30.16,NNW,333,0.0,1.0,42,0.00,,---,0.00,VWS V14.01,2013-01-17 00:43:00,
2013-01-16 18:48:00,13.6,-4.2,30.16,NNW,333,0.0,1.0,44,0.00,,---,0.00,VWS V14.01,2013-01-17 00:48:00,
2013-01-16 18:53:00,13.4,-5.4,30.16,NNW,337,0.0,2.0,42,0.00,,---,0.00,VWS V14.01,2013-01-17 00:53:00,
2013-01-16 18:58:00,13.2,-4.6,30.17,NNW,337,0.0,2.0,44,0.00,,---,0.00,VWS V14.01,2013-01-17 00:58:00,
2013-01-16 19:03:00,13.0,-4.3,30.16,North,355,0.0,0.0,45,0.00,,---,0.00,VWS V14.01,2013-01-17 01:03:00,
2013-01-16 19:08:00,12.7,-4.6,30.16,North,355,0.0,0.0,45,0.00,,---,0.00,VWS V14.01,2013-01-17 01:08:00,
2013-01-16 19:13:00,12.5,-6.2,30.17,North,355,0.0,3.0,42,0.00,,---,0.00,VWS V14.01,2013-01-17 01:13:00,
2013-01-16 19:18:00,12.4,-5.3,30.17,NW,308,0.0,3.0,44,0.00,,---,0.00,VWS V14.01,2013-01-17 01:18:00,
2013-01-16 19:23:00,12.2,-5.5,30.17,NNW,337,0.0,4.0,44,0.00,,---,0.00,VWS V14.01,2013-01-17 01:23:00,
2013-01-16 19:28:00,12.0,-6.2,30.18,NNE,21,4.0,4.0,43,0.00,,---,0.00,VWS V14.01,2013-01-17 01:28:00,
2013-01-16 19:33:00,11.8,-6.4,30.18,NNW,347,0.0,1.0,43,0.00,,---,0.00,VWS V14.01,2013-01-17 01:33:00,
2013-01-16 19:38:00,11.6,-5.6,30.19,NNW,347,1.0,1.0,45,0.00,,---,0.00,VWS V14.01,2013-01-17 01:38:00,
2013-01-16 19:43:00,11.4,-6.3,30.19,NNW,342,1.0,3.0,44,0.00,,---,0.00,VWS V14.01,2013-01-17 01:43:00,
2013-01-16 19:48:00,11.1,-6.1,30.19,NNW,342,0.0,3.0,45,0.00,,---,0.00,VWS V14.01,2013-01-17 01:48:00,
2013-01-16 19:53:00,10.8,-5.5,30.19,NNW,337,0.0,3.0,47,0.00,,---,0.00,VWS V14.01,2013-01-17 01:53:00,
2013-01-16 19:58:00,10.7,-6.0,30.20,NNW,337,0.0,3.0,46,0.00,,---,0.00,VWS V14.01,2013-01-17 01:58:00,
2013-01-16 20:03:00,10.6,-6.1,30.20,WNW,290,1.0,2.0,46,0.00,,---,0.00,VWS V14.01,2013-01-17 02:03:00,
2013-01-16 20:08:00,10.4,-6.3,30.21,North,355,0.0,2.0,46,0.00,,---,0.00,VWS V14.01,2013-01-17 02:08:00,
2013-01-16 20:13:00,10.3,-6.4,30.20,North,360,0.0,2.0,46,0.00,,---,0.00,VWS V14.01,2013-01-17 02:13:00,
2013-01-16 20:18:00,10.0,-6.2,30.20,North,360,0.0,2.0,47,0.00,,---,0.00,VWS V14.01,2013-01-17 02:18:00,
2013-01-16 20:23:00,9.9,-5.9,30.20,North,360,0.0,2.0,48,0.00,,---,0.00,VWS V14.01,2013-01-17 02:23:00,
2013-01-16 20:28:00,9.5,-5.8,30.20,North,360,0.0,2.0,49,0.00,,---,0.00,VWS V14.01,2013-01-17 02:28:00,
2013-01-16 20:33:00,9.3,-6.4,30.20,NW,309,0.0,0.0,48,0.00,,---,0.00,VWS V14.01,2013-01-17 02:33:00,
2013-01-16 20:38:00,9.2,-6.1,30.20,NW,309,0.0,0.0,49,0.00,,---,0.00,VWS V14.01,2013-01-17 02:38:00,
2013-01-16 20:43:00,9.0,-6.3,30.20,NW,309,0.0,0.0,49,0.00,,---,0.00,VWS V14.01,2013-01-17 02:43:00,
2013-01-16 20:48:00,8.7,-6.1,30.20,NW,309,0.0,0.0,50,0.00,,---,0.00,VWS V14.01,2013-01-17 02:48:00,
2013-01-16 20:53:00,8.5,-5.9,30.21,NW,310,0.0,0.0,51,0.00,,---,0.00,VWS V14.01,2013-01-17 02:53:00,
2013-01-16 20:58:00,8.3,-6.1,30.21,NW,309,0.0,1.0,51,0.00,,---,0.00,VWS V14.01,2013-01-17 02:58:00,
2013-01-16 21:03:00,8.1,-6.3,30.22,NW,309,0.0,0.0,51,0.00,,---,0.00,VWS V14.01,2013-01-17 03:03:00,
2013-01-16 21:08:00,8.0,-6.4,30.22,NW,310,0.0,0.0,51,0.00,,---,0.00,VWS V14.01,2013-01-17 03:08:00,
2013-01-16 21:13:00,7.8,-6.6,30.23,NW,309,0.0,0.0,51,0.00,,---,0.00,VWS V14.01,2013-01-17 03:13:00,
2013-01-16 21:18:00,7.7,-6.7,30.23,NW,309,0.0,0.0,51,0.00,,---,0.00,VWS V14.01,2013-01-17 03:18:00,
2013-01-16 21:23:00,7.5,-6.4,30.23,NW,309,0.0,0.0,52,0.00,,---,0.00,VWS V14.01,2013-01-17 03:23:00,
2013-01-16 21:28:00,7.3,-6.2,30.23,WNW,302,0.0,1.0,53,0.00,,---,0.00,VWS V14.01,2013-01-17 03:28:00,
2013-01-16 21:33:00,7.2,-6.3,30.24,WNW,302,0.0,0.0,53,0.00,,---,0.00,VWS V14.01,2013-01-17 03:33:00,
2013-01-16 21:38:00,7.0,-6.5,30.24,West,280,0.0,2.0,53,0.00,,---,0.00,VWS V14.01,2013-01-17 03:38:00,
2013-01-16 21:43:00,6.9,-6.2,30.24,West,280,0.0,2.0,54,0.00,,---,0.00,VWS V14.01,2013-01-17 03:43:00,
2013-01-16 21:48:00,6.7,-6.8,30.25,West,280,0.0,2.0,53,0.00,,---,0.00,VWS V14.01,2013-01-17 03:48:00,
2013-01-16 21:53:00,6.5,-7.0,30.25,West,280,0.0,2.0,53,0.00,,---,0.00,VWS V14.01,2013-01-17 03:53:00,
2013-01-16 21:58:00,6.4,-7.1,30.25,West,280,0.0,2.0,53,0.00,,---,0.00,VWS V14.01,2013-01-17 03:58:00,
2013-01-16 22:03:00,6.2,-6.9,30.26,West,280,0.0,0.0,54,0.00,,---,0.00,VWS V14.01,2013-01-17 04:03:00,
2013-01-16 22:08:00,6.1,-7.0,30.26,WSW,244,0.0,2.0,54,0.00,,---,0.00,VWS V14.01,2013-01-17 04:08:00,
2013-01-16 22:13:00,6.0,-7.1,30.26,WSW,248,0.0,2.0,54,0.00,,---,0.00,VWS V14.01,2013-01-17 04:13:00,
2013-01-16 22:18:00,5.8,-6.9,30.27,WSW,248,0.0,2.0,55,0.00,,---,0.00,VWS V14.01,2013-01-17 04:18:00,
2013-01-16 22:23:00,5.7,-6.6,30.27,WSW,248,0.0,2.0,56,0.00,,---,0.00,VWS V14.01,2013-01-17 04:23:00,
2013-01-16 22:28:00,5.5,-6.8,30.27,WNW,283,0.0,2.0,56,0.00,,---,0.00,VWS V14.01,2013-01-17 04:28:00,
2013-01-16 22:33:00,5.4,-6.9,30.27,WNW,284,0.0,1.0,56,0.00,,---,0.00,VWS V14.01,2013-01-17 04:33:00,
2013-01-16 22:38:00,5.2,-6.7,30.28,NW,313,0.0,1.0,57,0.00,,---,0.00,VWS V14.01,2013-01-17 04:38:00,
2013-01-16 22:43:00,5.0,-7.3,30.28,NW,306,0.0,2.0,56,0.00,,---,0.00,VWS V14.01,2013-01-17 04:43:00,
2013-01-16 22:48:00,4.9,-7.3,30.28,NW,306,0.0,2.0,56,0.00,,---,0.00,VWS V14.01,2013-01-17 04:48:00,
2013-01-16 22:53:00,4.8,-7.4,30.29,NW,306,0.0,2.0,56,0.00,,---,0.00,VWS V14.01,2013-01-17 04:53:00,
2013-01-16 22:58:00,4.6,-7.6,30.29,NW,322,0.0,3.0,56,0.00,,---,0.00,VWS V14.01,2013-01-17 04:58:00,
2013-01-16 23:00:00,4.6,-7.3,30.29,NW,322,0.0,3.0,57,0.00,,---,0.00,VWS V14.01,2013-01-17 05:00:00,
2013-01-16 23:01:00,4.6,-7.3,30.29,NW,322,0.0,3.0,57,0.00,,---,0.00,VWS V14.01,2013-01-17 05:01:00,
2013-01-16 23:02:00,4.6,-7.3,30.29,West,263,0.0,2.0,57,0.00,,---,0.00,VWS V14.01,2013-01-17 05:02:00,
2013-01-16 23:07:00,4.5,-7.4,30.29,WNW,296,0.0,3.0,57,0.00,,---,0.00,VWS V14.01,2013-01-17 05:07:00,
2013-01-16 23:12:00,4.5,-7.0,30.30,WNW,296,0.0,3.0,58,0.00,,---,0.00,VWS V14.01,2013-01-17 05:12:00,
2013-01-16 23:17:00,4.6,-6.6,30.30,NNW,329,0.0,3.0,59,0.00,,---,0.00,VWS V14.01,2013-01-17 05:17:00,
2013-01-16 23:22:00,4.6,-6.6,30.30,NW,319,0.0,3.0,59,0.00,,---,0.00,VWS V14.01,2013-01-17 05:22:00,
2013-01-16 23:27:00,4.6,-6.6,30.30,North,360,1.0,3.0,59,0.00,,---,0.00,VWS V14.01,2013-01-17 05:27:00,
2013-01-16 23:32:00,4.6,-6.2,30.31,NNW,342,0.0,1.0,60,0.00,,---,0.00,VWS V14.01,2013-01-17 05:32:00,
2013-01-16 23:37:00,4.6,-6.2,30.31,WNW,300,1.0,3.0,60,0.00,,---,0.00,VWS V14.01,2013-01-17 05:37:00,
2013-01-16 23:42:00,4.5,-6.3,30.31,NNW,337,0.0,4.0,60,0.00,,---,0.00,VWS V14.01,2013-01-17 05:42:00,
2013-01-16 23:47:00,4.5,-6.7,30.31,North,360,0.0,4.0,59,0.00,,---,0.00,VWS V14.01,2013-01-17 05:47:00,
2013-01-16 23:52:00,4.4,-6.1,30.31,WNW,299,1.0,4.0,61,0.00,,---,0.00,VWS V14.01,2013-01-17 05:52:00,
2013-01-16 23:57:00,4.5,-6.0,30.31,WNW,297,0.0,4.0,61,0.00,,---,0.00,VWS V14.01,2013-01-17 05:57:00,